Regional Weather Roundup
Issued by NWS State College, PA

Home | Current Version | Previous Version | Text Only | Print | Product List | Glossary On
Versions: 1 2 3 4 5 6 7 8 9 10 11 12 13 14 15 16 17 18 19 20 21 22 23 24 25 26 27 28 29 30 31 32 33 34 35 36 37 38 39 40 41 42 43 44 45 46 47 48 49 50
000
ASUS41 KCTP 231410
RWRCTP

REGIONAL WEATHER ROUNDUP
NATIONAL WEATHER SERVICE STATE COLLEGE PA
1000 AM EDT MON OCT 23 2017

Note: "fair" indicates few or no clouds below 12,000 feet with no
significant weather and/or obstructions to visibility.

* = STATION THAT DOES NOT REPORT PRECIPITATION /E.G. RAIN...SNOW...ETC/
    THUNDER OR FOG.

PAZ002>004-007>009-013>016-020>023-029>032-231500-
WESTERN PENNSYLVANIA

CITY           SKY/WX    TMP DP  RH WIND       PRES   REMARKS
ERIE           PTSUNNY   65  53  65 S22       29.98F
MEADVILLE      CLOUDY    60  53  77 VRB6      30.03F
FRANKLIN*      CLOUDY    61  53  75 SE16G23   30.06F
NEW CASTLE     CLOUDY    63  55  75 S9        30.03F
BEAVER COUNTY  NOT AVBL
BUTLER*        LGT RAIN  58  55  90 E9        30.06F
PITTSBURGH INT CLOUDY    60  57  89 SE8       30.03F
PITTSBURGH     LGT RAIN  60  53  77 SE7       30.05F
INDIANA*       SUNNY     63  55  77 S13G21    30.11F
LATROBE        MOSUNNY   64  55  72 S6        30.07F
WASHINGTON CO* CLOUDY    60  55  83 SE3       30.05F
$$

PAZ004>006-010>012-017>019-024>028-033>037-041-042-045-046-049>053-231500-
CENTRAL PENNSYLVANIA

CITY           SKY/WX    TMP DP  RH WIND       PRES   REMARKS
BRADFORD       CLOUDY    59  53  80 S12G20    30.12F
DUBOIS         PTSUNNY   60  52  74 SE9G21    30.10F
CLEARFIELD     NOT AVBL
JOHNSTOWN      CLOUDY    58  55  90 SE16G26   30.14F
ALTOONA        CLOUDY    62  58  86 SE15      30.18F
STATE COLLEGE  CLOUDY    61  55  82 S10       30.18F
WILLIAMSPORT   CLOUDY    62  58  86 E10       30.20F
SELINSGROVE    CLOUDY    62  59  90 S3        30.22F
FT INDIANTOWN  FOG       59  59 100 CALM      30.23F VSB 3/4
CAPITAL CITY   CLOUDY    63  59  87 SE8       30.22F FOG
HARRISBURG     CLOUDY    62  61  96 SE3       30.22F FOG
YORK           CLOUDY    63  61  93 SE3       30.22F
$$

PAZ038>040-043-044-047-048-054-055-060>062-067>071-231500-
EASTERN PENNSYLVANIA

CITY           SKY/WX    TMP DP  RH WIND       PRES   REMARKS
SCRANTON       CLOUDY    61  55  81 CALM      30.24F
MOUNT POCONO   FOG       57  57 100 S9        30.27F VSB 1/4
ALLENTOWN      CLOUDY    64  59  83 SE7       30.27F
QUAKERTOWN*    CLOUDY    61  61 100 SE5       30.27F
READING        CLOUDY    65  63  93 SE7       30.24F FOG
LANCASTER      CLOUDY    63  63 100 SE6       30.24F
COATESVILLE    CLOUDY    63  63 100 VRB7      30.26F FOG
POTTSTOWN      CLOUDY    61  61 100 VRB3      30.28S FOG
BLUE BELL      CLOUDY    63  63 100 SE3       30.28F
DOYLESTOWN     CLOUDY    61  61 100 SE3       30.26F FOG
WILLOW GROVE   NOT AVBL
NORTH PHILA    CLOUDY    66  63  90 SE6       30.28F
PHILADELPHIA   CLOUDY    69  62  78 SE7       30.26F
$$




USA.gov is the U.S. government's official web portal to all federal, state and local government web resources and services.